Wind_Speed
44 44 45 45 45 46 47 47 47 46 46 46 46 46 46 45 45 45 45 46 46 46 46 47 47 47 48 49 50 50 50 50 49 48 47 47 48 48 48 49 49 49 50
44 44 44 45 45 46 46 46 46 46 46 46 46 46 45 45 45 45 45 45 46 47 47 48 48 48 48 48 49 49 49 48 48 47 46 46 46 47 48 48 48 48 49
42 43 44 44 45 46 46 46 46 46 46 47 46 46 47 46 46 46 46 46 46 46 47 47 47 47 47 47 47 48 48 48 47 47 46 45 45 46 47 47 47 47 47
41 42 42 43 44 45 46 46 46 46 47 47 47 47 47 47 47 46 46 46 46 46 46 47 46 46 47 47 47 47 47 47 47 47 46 45 45 45 45 46 45 45 45
40 41 42 43 43 44 45 45 45 45 46 46 46 47 47 47 47 46 46 46 46 46 47 47 47 47 48 48 48 47 46 46 46 46 45 45 45 45 45 45 45 45 45
39 39 41 42 42 42 43 44 45 45 45 45 46 46 46 46 46 46 46 46 46 47 46 46 46 47 47 47 47 47 46 46 46 46 45 45 45 45 44 44 44 44 44
39 39 40 41 41 42 43 43 44 44 44 44 44 44 45 45 45 46 46 46 46 46 47 46 46 46 47 46 46 46 45 44 44 44 43 43 43 43 43 43 44 44 44
39 40 40 40 41 42 42 42 43 44 44 44 44 43 44 46 46 46 46 46 45 45 46 46 46 46 46 45 45 44 44 44 44 43 43 42 42 42 42 42 43 43 43
39 39 40 41 40 41 41 42 43 43 43 43 43 44 44 44 45 45 45 45 45 44 44 44 44 44 44 43 43 44 43 43 42 42 41 40 40 41 41 41 41 40 40
38 39 39 40 41 41 41 41 42 42 43 43 43 43 43 43 43 43 43 42 42 43 43 43 43 42 42 42 42 42 42 41 41 41 40 40 41 41 40 40 39 39 39
38 38 39 39 40 41 40 40 41 41 41 41 41 42 42 42 42 42 41 41 41 41 40 40 41 41 41 41 41 41 41 41 41 40 40 40 40 39 39 38 38 38 39
37 36 36 37 37 37 38 38 39 39 39 39 40 40 40 40 40 40 40 39 39 40 40 39 39 39 39 39 39 40 40 40 39 39 39 39 38 38 37 37 37 37 38
34 34 34 34 34 35 36 37 37 38 38 38 38 38 39 39 39 39 39 39 39 38 38 38 38 39 39 38 37 37 38 38 37 37 37 37 37 37 36 36 36 37 37
33 32 33 33 34 34 35 36 36 37 37 37 37 37 38 38 38 38 38 38 38 37 37 37 37 37 37 37 37 37 37 37 37 37 36 36 36 36 35 35 36 36 36
31 31 32 33 33 34 34 35 35 36 35 35 36 36 36 37 37 36 36 37 37 37 37 36 36 36 36 36 36 36 36 36 36 36 36 36 35 35 35 35 35 35 35
31 32 32 33 33 34 34 34 33 34 34 34 35 34 34 35 34 34 34 34 35 35 35 35 35 35 36 36 36 36 36 35 36 36 36 35 35 35 35 35 35 34 34
30 31 31 31 32 33 33 33 33 33 33 33 33 33 33 33 32 32 32 33 33 33 34 34 34 35 35 35 35 35 35 35 35 35 35 35 34 34 33 33 32 32 32
28 29 29 30 31 31 32 32 32 32 32 32 32 32 32 32 32 32 32 32 32 32 33 33 33 34 34 34 34 33 33 33 33 33 33 33 33 33 32 31 31 30 31
27 28 28 29 30 30 30 30 31 31 31 31 31 31 32 32 32 32 32 32 32 32 32 32 32 32 32 33 33 33 33 33 32 32 32 32 32 31 31 30 30 30 29
26 27 28 29 29 29 30 30 30 30 31 31 31 31 31 31 31 32 32 32 32 32 32 31 31 31 31 31 32 32 32 32 32 31 31 31 30 29 29 29 28 28 28
26 27 27 28 29 29 29 30 30 30 30 30 30 30 30 30 30 30 30 30 30 30 30 30 30 30 30 30 30 30 30 30 30 29 29 28 27 27 27 27 27 27 26
26 27 28 28 29 29 29 29 29 29 30 30 30 30 29 29 28 28 29 29 29 29 29 28 28 28 29 29 28 28 28 27 27 26 26 25 25 26 25 25 25 25 24
27 28 28 28 28 28 28 28 28 28 28 29 29 28 28 28 27 27 27 27 27 27 27 27 27 27 27 27 27 27 26 25 25 25 24 24 24 24 24 24 23 23 23
27 28 28 28 28 28 28 27 27 27 27 27 26 26 26 26 26 26 26 26 26 26 26 26 26 26 26 25 25 25 25 25 24 24 23 23 23 23 23 23 22 22 22
27 27 27 27 27 26 26 26 26 26 25 24 24 24 24 24 24 24 24 24 24 24 25 25 25 25 25 24 24 24 23 23 23 23 23 23 23 22 22 21 21 20 20
24 24 24 24 24 24 24 24 24 23 23 23 23 23 23 23 23 23 24 24 24 24 24 25 25 25 25 24 24 23 22 22 22 22 22 21 21 20 20 19 19 19 18
Wind_Direction
254 256 258 259 261 262 264 266 268 269 270 271 270 271 272 273 274 274 274 275 275 275 276 277 278 279 280 280 281 281 281 281 279 278 277 275 275 276 276 276 275 274 273
255 257 259 261 262 265 266 267 268 269 270 270 271 271 272 272 274 274 275 275 276 277 278 279 280 280 280 282 283 283 282 282 281 279 278 277 277 278 278 278 276 276 274
257 258 260 261 263 265 266 267 268 269 270 270 271 272 272 273 274 274 275 275 277 277 278 279 280 280 280 281 282 282 282 281 280 280 280 278 278 278 278 278 277 277 275
258 259 261 263 264 265 267 268 268 269 269 270 271 272 272 273 273 274 275 275 277 277 278 278 279 280 281 281 282 282 283 281 280 279 279 279 279 279 279 279 278 277 276
259 260 262 264 265 266 267 266 268 269 270 271 271 271 272 273 273 273 275 276 278 279 279 279 279 280 281 282 282 282 283 281 280 279 278 279 279 279 279 278 277 277 276
261 262 263 264 267 268 267 267 268 270 271 272 272 271 272 272 273 274 276 277 278 279 279 280 280 281 282 282 283 282 283 283 281 279 279 280 279 279 279 278 278 277 276
262 263 265 265 268 268 268 270 270 271 271 272 272 272 272 272 273 275 275 277 278 279 279 279 280 281 282 282 282 282 282 282 280 281 280 280 280 279 279 279 278 278 277
263 264 265 266 267 268 269 270 271 271 272 272 273 273 273 273 274 275 276 277 278 278 279 279 280 281 281 281 281 281 281 281 280 281 281 281 281 281 280 280 279 279 279
265 266 266 266 267 269 270 271 271 272 272 273 272 273 273 274 275 275 277 277 278 278 279 280 280 280 280 280 280 280 280 280 280 281 281 281 281 281 281 281 279 278 278
265 266 266 266 266 269 271 272 272 273 273 274 273 273 273 274 275 276 277 278 278 278 279 279 280 280 279 279 279 280 280 280 280 279 280 280 280 281 281 281 279 278 278
267 267 266 266 267 269 270 272 273 273 274 275 275 275 275 276 277 277 277 278 278 279 280 281 281 280 279 279 279 280 280 280 280 279 280 280 280 280 280 281 280 279 279
266 266 266 266 268 269 270 271 272 273 274 275 276 276 277 277 277 277 278 279 279 279 281 282 281 281 281 281 281 281 281 280 281 280 280 280 280 280 281 281 280 280 280
265 265 266 266 268 270 272 272 273 274 274 275 276 276 277 278 278 277 277 278 279 280 281 282 281 281 281 281 281 281 281 280 281 280 279 280 280 281 280 280 280 281 282
264 265 266 267 269 272 273 273 273 273 274 275 276 277 277 278 278 277 277 278 279 280 281 281 280 280 281 281 281 281 282 281 281 281 279 280 280 280 279 279 281 282 282
264 265 266 268 271 273 274 274 273 273 274 275 276 277 278 278 279 278 279 278 278 278 279 280 279 279 280 281 281 282 282 281 281 281 280 280 280 280 279 279 280 281 282
265 266 267 269 271 273 274 274 274 274 274 275 276 278 278 279 278 278 279 279 279 278 278 280 279 279 280 281 282 282 282 281 281 281 280 279 280 280 280 280 280 281 281
266 267 268 270 272 274 274 274 275 275 275 275 276 277 278 278 278 278 278 279 279 278 279 280 280 280 280 282 282 283 282 282 282 282 280 279 280 281 280 280 281 283 284
268 269 270 272 274 275 275 275 274 275 275 275 276 277 277 277 277 276 277 278 278 278 280 282 281 281 281 281 282 282 283 283 282 283 282 280 280 280 281 280 281 283 285
271 271 272 273 275 276 276 275 274 275 275 276 276 276 276 276 276 276 276 277 278 279 281 282 283 282 282 281 281 282 283 283 282 283 283 283 282 280 280 281 282 283 284
273 273 274 275 275 276 276 275 275 275 276 276 276 276 276 276 276 276 276 277 278 279 281 282 283 282 283 283 283 284 284 283 283 283 284 283 281 280 280 280 280 281 282
274 275 276 276 277 277 276 276 276 276 276 275 276 276 276 276 277 277 277 278 278 279 280 282 283 284 284 285 285 285 285 284 283 283 283 281 279 280 280 280 280 280 281
277 278 278 278 279 279 278 277 276 275 276 276 275 275 274 275 276 277 277 278 279 279 280 282 284 285 285 285 285 286 286 285 283 282 282 281 280 281 281 280 280 281 282
278 279 279 279 279 279 278 277 276 276 276 277 276 275 273 273 275 277 278 279 279 280 280 282 283 284 285 285 286 286 285 284 283 282 281 281 281 281 280 280 280 281 282
279 280 280 279 279 279 278 278 277 277 277 277 276 274 273 274 275 276 278 279 279 279 280 281 283 284 285 287 287 285 285 284 282 282 281 282 281 281 281 279 279 280 282
281 281 280 279 279 279 278 278 278 277 276 275 275 274 274 275 277 277 278 279 280 280 281 282 283 284 286 286 285 285 284 282 282 281 281 281 281 281 280 278 278 279 280
283 282 280 280 279 278 278 278 277 276 274 275 275 275 275 276 277 278 279 280 281 282 282 283 284 285 286 285 284 283 283 282 282 282 281 279 279 278 278 277 277 277 278
Height
5663 5664 5666 5667 5668 5668 5668 5668 5668 5668 5667 5667 5666 5665 5664 5664 5662 5661 5660 5659 5657 5655 5653 5652 5650 5648 5646 5644 5642 5640 5638 5635 5633 5632 5630 5628 5627 5626 5625 5623 5623 5622 5622
5652 5653 5654 5655 5656 5656 5656 5656 5656 5656 5655 5655 5654 5653 5653 5652 5651 5650 5648 5647 5646 5644 5642 5640 5638 5636 5635 5633 5630 5628 5625 5623 5621 5620 5618 5616 5615 5613 5612 5611 5610 5609 5608
5641 5642 5643 5644 5644 5644 5644 5644 5644 5643 5643 5642 5642 5641 5641 5640 5639 5638 5637 5635 5634 5632 5630 5629 5627 5625 5623 5621 5618 5616 5613 5611 5609 5607 5606 5604 5603 5601 5599 5598 5597 5596 5594
5631 5631 5632 5632 5632 5632 5632 5632 5632 5631 5631 5630 5629 5629 5628 5628 5627 5626 5625 5623 5622 5620 5619 5617 5615 5613 5611 5608 5606 5604 5601 5599 5597 5595 5594 5592 5591 5589 5587 5586 5584 5583 5581
5620 5620 5620 5620 5620 5620 5620 5620 5619 5619 5618 5618 5617 5617 5616 5616 5615 5614 5613 5611 5610 5608 5607 5605 5603 5601 5598 5596 5594 5592 5589 5587 5585 5583 5582 5580 5579 5577 5576 5574 5572 5571 5569
5609 5609 5609 5609 5609 5609 5608 5608 5608 5607 5607 5606 5605 5604 5604 5603 5603 5601 5600 5599 5598 5597 5595 5593 5591 5589 5587 5584 5582 5580 5578 5575 5573 5572 5570 5569 5567 5565 5563 5562 5560 5559 5559
5598 5598 5598 5598 5598 5597 5597 5596 5596 5595 5595 5594 5593 5592 5592 5591 5590 5589 5588 5587 5586 5584 5582 5581 5579 5577 5575 5573 5570 5568 5566 5564 5562 5561 5559 5557 5555 5553 5552 5551 5549 5547 5546
5587 5587 5587 5587 5587 5586 5586 5585 5585 5584 5583 5582 5582 5581 5580 5579 5578 5577 5576 5574 5573 5572 5570 5568 5566 5565 5563 5561 5559 5557 5555 5553 5551 5550 5548 5546 5544 5542 5540 5539 5537 5536 5535
5576 5576 5576 5575 5575 5574 5574 5574 5573 5572 5571 5570 5570 5569 5568 5567 5566 5565 5563 5562 5561 5560 5558 5556 5554 5552 5551 5549 5547 5546 5544 5541 5539 5538 5537 5535 5533 5531 5529 5527 5526 5525 5524
5565 5565 5564 5563 5563 5563 5563 5562 5561 5560 5559 5558 5558 5557 5556 5555 5554 5553 5551 5550 5550 5548 5546 5544 5542 5541 5539 5537 5535 5534 5532 5530 5529 5527 5526 5524 5522 5520 5518 5517 5515 5514 5513
5554 5554 5553 5552 5552 5552 5551 5550 5549 5549 5548 5547 5546 5545 5544 5543 5542 5541 5540 5539 5538 5536 5534 5533 5531 5529 5528 5526 5524 5522 5521 5519 5517 5516 5514 5513 5511 5510 5508 5506 5505 5503 5502
5543 5543 5542 5541 5541 5540 5540 5539 5538 5538 5537 5536 5535 5534 5533 5532 5531 5530 5528 5527 5526 5525 5523 5522 5520 5518 5517 5515 5513 5512 5510 5508 5507 5505 5504 5502 5501 5500 5498 5496 5494 5492 5491
5532 5532 5531 5531 5530 5530 5529 5528 5528 5527 5526 5525 5524 5523 5522 5521 5520 5518 5517 5516 5515 5514 5513 5511 5509 5508 5506 5504 5503 5501 5499 5498 5496 5495 5494 5492 5491 5489 5488 5486 5484 5482 5481
5522 5522 5522 5521 5520 5520 5519 5518 5517 5516 5515 5514 5513 5512 5511 5510 5509 5508 5507 5505 5504 5503 5502 5500 5499 5497 5496 5494 5493 5491 5489 5488 5486 5485 5483 5482 5480 5479 5478 5476 5474 5472 5470
5512 5512 5512 5511 5511 5510 5509 5507 5507 5506 5505 5504 5503 5502 5501 5500 5499 5497 5496 5495 5494 5492 5491 5490 5489 5487 5486 5484 5483 5481 5479 5478 5476 5475 5473 5472 5470 5469 5468 5466 5464 5462 5460
5503 5502 5502 5501 5501 5500 5499 5498 5496 5496 5495 5494 5493 5492 5491 5490 5488 5487 5486 5485 5483 5482 5481 5480 5479 5477 5476 5475 5473 5471 5469 5468 5466 5465 5463 5461 5460 5459 5457 5456 5454 5452 5450
5493 5493 5492 5492 5491 5490 5489 5488 5487 5486 5485 5484 5483 5482 5481 5480 5479 5477 5476 5475 5474 5473 5472 5471 5469 5468 5466 5465 5463 5461 5460 5458 5456 5454 5453 5451 5450 5449 5447 5446 5444 5443 5441
5484 5483 5483 5482 5481 5480 5479 5478 5477 5476 5476 5474 5474 5472 5471 5470 5469 5468 5467 5466 5465 5464 5463 5461 5460 5458 5457 5455 5453 5452 5450 5448 5446 5445 5443 5442 5440 5439 5437 5436 5435 5433 5432
5475 5475 5474 5473 5472 5471 5470 5469 5468 5467 5466 5465 5464 5463 5462 5461 5460 5459 5458 5457 5456 5455 5454 5452 5450 5449 5447 5445 5444 5442 5440 5439 5437 5435 5434 5432 5430 5429 5428 5427 5425 5424 5422
5467 5466 5465 5464 5463 5462 5461 5460 5459 5458 5457 5456 5455 5454 5453 5452 5451 5450 5449 5448 5447 5446 5444 5443 5441 5439 5438 5436 5434 5432 5431 5429 5427 5426 5424 5422 5421 5420 5419 5417 5416 5415 5414
5459 5457 5456 5455 5454 5453 5451 5450 5449 5449 5448 5446 5446 5444 5443 5443 5442 5441 5440 5439 5438 5437 5435 5434 5432 5430 5428 5427 5425 5423 5421 5420 5418 5416 5415 5413 5412 5411 5410 5409 5407 5406 5405
5450 5449 5448 5446 5445 5444 5442 5441 5440 5439 5438 5437 5436 5435 5434 5433 5433 5432 5431 5430 5428 5427 5426 5424 5423 5421 5419 5418 5416 5414 5412 5411 5409 5407 5406 5405 5404 5403 5401 5400 5399 5398 5397
5441 5440 5439 5437 5436 5435 5433 5432 5431 5430 5429 5428 5427 5426 5425 5425 5424 5423 5422 5421 5420 5418 5417 5416 5414 5413 5411 5409 5407 5405 5404 5402 5401 5399 5398 5397 5396 5395 5394 5393 5392 5390 5389
5432 5431 5430 5428 5427 5426 5425 5424 5422 5421 5420 5419 5418 5417 5417 5416 5415 5414 5413 5412 5411 5410 5409 5407 5406 5405 5403 5401 5399 5397 5396 5394 5393 5392 5391 5390 5388 5387 5386 5385 5384 5383 5383
5424 5422 5421 5420 5419 5418 5417 5415 5414 5413 5412 5411 5411 5410 5409 5408 5407 5406 5405 5404 5403 5402 5401 5399 5398 5397 5395 5393 5392 5390 5388 5387 5385 5384 5383 5382 5381 5380 5379 5378 5378 5377 5376
5416 5414 5413 5412 5411 5410 5409 5408 5407 5406 5405 5404 5403 5402 5402 5401 5400 5399 5398 5397 5396 5395 5393 5392 5390 5389 5387 5386 5384 5383 5381 5380 5378 5377 5376 5375 5374 5373 5373 5372 5371 5371 5370